Starlink 32504

operational
NORAD ID: 62024 Int'l Des: 2024-213 Owner: SPXS Country: US Constellation: starlink
LEOCIRCULAR

About Starlink 32504

Description loading...

Live Position

Loading 3D Globe...

Upcoming Passes

Altitude History

Altitude vs Time

uPlot chart will show altitude changes over time

Two-Line Element Set

1 62024U 24213S 25260.00006642 .00038575 00000-0 13068-2 0 9997
2 62024 53.1588 254.7933 0001255 78.2226 281.8915 15.30224733 46564
Epoch: Sep 17, 2025 • Age: 23 hours

Current Status

Altitude 492.1 km
Velocity 7.62 km/s
Sub-Earth Point -47.77°S, 143.04°E
Launch Date Nov 18, 2024
Age 0.8 years
Type internet

Technical Details

Classification Payload
Mass 730.00 kg
Dry Mass 700.00 kg
Total Mass 730.00 kg
Length 0.30 m
Diameter 4.10 m
Span 29.00 m
Shape Box + pan
Manufacturer SPXS
Bus Type Starlink V2M
Phase Status In Orbit
Owner/State SPXS/US

Large Constellations

Loading constellations...